Date: February 19th 2010

SB KEPS @ AMSAT $ORB10049.O
Orbital Elements 10049.OSCAR

HR AMSAT ORBITAL ELEMENTS FOR OSCAR SATELLITES FROM WA5QGD FORT WORTH,TX February 18, 2010 Send Subscribe/unsubscribe to KEPS at http://www.amsat.org/mailman/listinfo/keps BID: ORB10049.O
TO ALL RADIO AMATEURS BT

Satellite: AO-07
Catalog number: 07530

Epoch time:      10049.13173512
Element set:     707
Inclination:      101.4095 deg
RA of node:       069.5882 deg

Eccentricity: 0.0012111
Arg of perigee: 147.2606 deg
Mean anomaly: 212.9217 deg
Mean motion: 12.53577763 rev/day

Decay rate:       -2.7e-07 rev/day^2
Epoch rev:           61353
Checksum:              272

Satellite: FO-29
Catalog number: 24278

Epoch time:      10049.63410201
Element set:     249
Inclination:      098.5208 deg
RA of node:       255.1112 deg

Eccentricity: 0.0351374
Arg of perigee: 071.4165 deg
Mean anomaly: 292.4794 deg
Mean motion: 13.52947630 rev/day

Decay rate:       -3.1e-07 rev/day^2
Epoch rev:           66707
Checksum:              295

Satellite: SO-33
Catalog number: 25509

Epoch time:      10049.50842320
Element set:     652
Inclination:      031.4318 deg
RA of node:       099.6309 deg

Eccentricity: 0.0353957
Arg of perigee: 332.1030 deg
Mean anomaly: 026.1067 deg
Mean motion: 14.28288332 rev/day

Decay rate:       2.89e-06 rev/day^2
Epoch rev:           59107
Checksum:              292

Satellite: RS-22
Catalog number: 27939
Epoch time: 10047.57913563
Element set: 0011

Inclination:      097.9110 deg
RA of node:       278.0563 deg

Eccentricity: 0.0014737
Arg of perigee: 081.5934 deg
Mean anomaly: 278.6930 deg
Mean motion: 14.63382004 rev/day

Decay rate:       1.70e-06 rev/day^2
Epoch rev:           34131
Checksum:              293

Satellite: VO-52
Catalog number: 28650

Epoch time:      10049.61755141
Element set:     438
Inclination:      097.7085 deg
RA of node:       107.5905 deg

Eccentricity: 0.0026084
Arg of perigee: 305.8734 deg
Mean anomaly: 054.0038 deg
Mean motion: 14.81686119 rev/day

Decay rate:       4.32e-06 rev/day^2
Epoch rev:           25913
Checksum:              304

Satellite: SO-67
Catalog number: 35870

Epoch time:      10049.76775978
Element set:     458
Inclination:      097.3489 deg
RA of node:       101.7695 deg

Eccentricity: 0.0012711
Arg of perigee: 109.7472 deg
Mean anomaly: 358.7804 deg
Mean motion: 15.22891795 rev/day

Decay rate:      1.467e-05 rev/day^2
Epoch rev:            2344
Checksum:              358

Satellite: HO-68
Catalog number: 36122

Epoch time:      10049.59941557
Element set:     136
Inclination:      100.4855 deg
RA of node:       111.1613 deg

Eccentricity: 0.0007124
Arg of perigee: 246.8327 deg
Mean anomaly: 113.2042 deg
Mean motion: 13.16279758 rev/day

Decay rate:       -4.5e-07 rev/day^2
Epoch rev:             861
Checksum:              278

/EX
SB KEPS @ AMSAT $ORB10049.D
Orbital Elements 10049.MICROS

HR AMSAT ORBITAL ELEMENTS FOR THE MICROSATS FROM WA5QGD FORT WORTH,TX February 18, 2010 Send Subscribe/unsubscribe to KEPS at http://www.amsat.org/mailman/listinfo/keps BID: ORB10049.D
TO ALL RADIO AMATEURS BT

Satellite: UO-11
Catalog number: 14781

Epoch time:      10049.62297577
Element set:     178
Inclination:      098.0717 deg
RA of node:       100.9098 deg

Eccentricity: 0.0008048
Arg of perigee: 263.6707 deg
Mean anomaly: 096.3612 deg
Mean motion: 14.79768923 rev/day

Decay rate:       -2.4e-07 rev/day^2
Epoch rev:           39427
Checksum:              334

Satellite: AO-16
Catalog number: 20439

Epoch time:      10048.97428911
Element set:     825
Inclination:      098.3175 deg
RA of node:       011.6685 deg

Eccentricity: 0.0011372
Arg of perigee: 156.1258 deg
Mean anomaly: 204.0453 deg
Mean motion: 14.31848458 rev/day

Decay rate:        2.3e-07 rev/day^2
Epoch rev:            4832
Checksum:              293

Satellite: LO-19
Catalog number: 20442

Epoch time:      10049.34058196
Element set:     736
Inclination:      098.2791 deg
RA of node:       018.3042 deg

Eccentricity: 0.0012499
Arg of perigee: 150.9365 deg
Mean anomaly: 209.2529 deg
Mean motion: 14.32081633 rev/day

Decay rate:        6.1e-07 rev/day^2
Epoch rev:            4854
Checksum:              295

Satellite: AO-27
Catalog number: 22825

Epoch time:      10049.00515445
Element set:     460
Inclination:      098.4720 deg
RA of node:       000.1228 deg

Eccentricity: 0.0007506
Arg of perigee: 258.6617 deg
Mean anomaly: 101.3710 deg
Mean motion: 14.29286803 rev/day

Decay rate:        5.4e-07 rev/day^2
Epoch rev:           85502
Checksum:              268

Satellite: IO-26
Catalog number: 22826

Epoch time:      10049.79180224
Element set:     195
Inclination:      098.4655 deg
RA of node:       001.5349 deg

Eccentricity: 0.0008052
Arg of perigee: 252.1106 deg
Mean anomaly: 107.9202 deg
Mean motion: 14.29541113 rev/day

Decay rate:        2.2e-07 rev/day^2
Epoch rev:           85524
Checksum:              272

Satellite: GO-32
Catalog number: 25397

Epoch time:      10049.14389452
Element set:     115
Inclination:      098.3164 deg
RA of node:       063.1359 deg

Eccentricity: 0.0000405
Arg of perigee: 201.4016 deg
Mean anomaly: 158.7158 deg
Mean motion: 14.23171911 rev/day

Decay rate:        6.0e-07 rev/day^2
Epoch rev:           60311
Checksum:              262

Satellite: NO-44
Catalog number: 26931

Epoch time:      10048.64093583
Element set:     389
Inclination:      067.0536 deg
RA of node:       151.9759 deg

Eccentricity: 0.0006615
Arg of perigee: 264.6701 deg
Mean anomaly: 095.3658 deg
Mean motion: 14.29584106 rev/day

Decay rate:       2.05e-06 rev/day^2
Epoch rev:           43766
Checksum:              327

Satellite: SO-50
Catalog number: 27607

Epoch time:      10048.87410718
Element set:     105
Inclination:      064.5605 deg
RA of node:       358.9043 deg

Eccentricity: 0.0038664
Arg of perigee: 131.7280 deg
Mean anomaly: 228.7130 deg
Mean motion: 14.71500150 rev/day

Decay rate:       1.09e-06 rev/day^2
Epoch rev:           38482
Checksum:              281

Satellite: CO-55
Catalog number: 27844

Epoch time:      10048.64995670
Element set:     782
Inclination:      098.7128 deg
RA of node:       059.3306 deg

Eccentricity: 0.0010339
Arg of perigee: 151.7469 deg
Mean anomaly: 208.4261 deg
Mean motion: 14.20684794 rev/day

Decay rate:        7.2e-07 rev/day^2
Epoch rev:           34411
Checksum:              322

Satellite: CO-57
Catalog number: 27848

Epoch time:      10049.22570490
Element set:     734
Inclination:      098.7168 deg
RA of node:       058.9746 deg

Eccentricity: 0.0010265
Arg of perigee: 153.0475 deg
Mean anomaly: 207.1255 deg
Mean motion: 14.20480532 rev/day

Decay rate:        5.9e-07 rev/day^2
Epoch rev:           34415
Checksum:              308

Satellite: AO-51
Catalog number: 28375

Epoch time:      10049.17711116
Element set:     606
Inclination:      098.0562 deg
RA of node:       049.4820 deg

Eccentricity: 0.0084692
Arg of perigee: 097.9732 deg
Mean anomaly: 263.1082 deg
Mean motion: 14.40669318 rev/day

Decay rate:        1.8e-07 rev/day^2
Epoch rev:           29637
Checksum:              316

Satellite: GENESAT1
Catalog number: 29655

Epoch time:      10049.48781854
Element set:     951
Inclination:      040.0200 deg
RA of node:       072.1131 deg

Eccentricity: 0.0005225
Arg of perigee: 196.0450 deg
Mean anomaly: 164.0199 deg
Mean motion: 15.74733911 rev/day

Decay rate:     6.3107e-04 rev/day^2
Epoch rev:           18117
Checksum:              275

Satellite: CP3
Catalog number: 31129

Epoch time:      10049.08743868
Element set:     508
Inclination:      097.9545 deg
RA of node:       094.9449 deg

Eccentricity: 0.0101411
Arg of perigee: 243.0500 deg
Mean anomaly: 116.0419 deg
Mean motion: 14.52211808 rev/day

Decay rate:       2.81e-06 rev/day^2
Epoch rev:           15057
Checksum:              282

Satellite: CO-65
Catalog number: 32785

Epoch time:      10049.30394748
Element set:     607
Inclination:      097.9102 deg
RA of node:       115.8015 deg

Eccentricity: 0.0014258
Arg of perigee: 315.0122 deg
Mean anomaly: 044.9919 deg
Mean motion: 14.81588326 rev/day

Decay rate:       5.69e-06 rev/day^2
Epoch rev:            9788
Checksum:              328

Satellite: KKS-1
Catalog number: 33493

Epoch time:      10049.74423620
Element set:     222
Inclination:      098.0712 deg
RA of node:       168.3381 deg

Eccentricity: 0.0020460
Arg of perigee: 161.0800 deg
Mean anomaly: 199.1191 deg
Mean motion: 14.80858903 rev/day

Decay rate:       8.96e-06 rev/day^2
Epoch rev:            5795
Checksum:              292

Satellite: SOHLA-1
Catalog number: 33496

Epoch time:      10048.93188030
Element set:      28
Inclination:      098.0474 deg
RA of node:       159.6314 deg

Eccentricity: 0.0005957
Arg of perigee: 214.3341 deg
Mean anomaly: 145.7466 deg
Mean motion: 14.69469362 rev/day

Decay rate:        3.9e-07 rev/day^2
Epoch rev:            5736
Checksum:              313

/EX
SB KEPS @ AMSAT $ORB10049.W
Orbital Elements 10049.WEATHER

HR AMSAT ORBITAL ELEMENTS FOR WEATHER SATELLITES FROM WA5QGD FORT WORTH,TX February 18, 2010 Send Subscribe/unsubscribe to KEPS at http://www.amsat.org/mailman/listinfo/keps BID: ORB10049.W
TO ALL RADIO AMATEURS BT

Satellite: NOAA-10
Catalog number: 16969

Epoch time:      10049.26910014
Element set:     961
Inclination:      098.6697 deg
RA of node:       079.2832 deg

Eccentricity: 0.0012092
Arg of perigee: 195.3395 deg
Mean anomaly: 164.7420 deg
Mean motion: 14.27406573 rev/day

Decay rate:       -5.8e-07 rev/day^2
Epoch rev:           21861
Checksum:              316

Satellite: NOAA-11
Catalog number: 19531

Epoch time:      10049.29792657
Element set:     977
Inclination:      098.7708 deg
RA of node:       140.3448 deg

Eccentricity: 0.0012024
Arg of perigee: 124.1782 deg
Mean anomaly: 236.0546 deg
Mean motion: 14.14916365 rev/day

Decay rate:       2.81e-06 rev/day^2
Epoch rev:           10432
Checksum:              299

